DW4221 Weather Reports


time (UTC)temp
C
wind
direction
speed
KPH
gust
KPH
rain 1hr
cm
rain 24hr
cm
rain mn
cm
humidity
%
barometer
mb
20260904060125 15 87 4.8 11.3 0.08 1.73 0.08 97 1014.1
20260904054618 15 0 0.0 9.7 0.05 1.70 0.05 97 1014.2
20260904053101 15 95 1.6 4.8 0.03 1.68 0.03 98 1014.0
20260904051555 15 96 0.0 6.4 0.03 1.68 0.03 97 1014.0
20260904050050 15 99 0.0 4.8 0.00 1.65 0.00 97 1014.4
20260904044556 15 0 0.0 6.4 0.00 1.65 1.65 97 1014.3
20260904043057 15 102 0.0 4.8 0.00 1.65 1.65 97 1014.4
20260904041605 15 0 0.0 4.8 0.00 1.65 1.65 97 1013.9
20260904040057 15 104 1.6 9.7 0.00 1.65 1.65 97 1013.8
20260904034551 15 111 0.0 6.4 0.00 1.65 1.65 97 1013.9
20260904033102 15 128 4.8 14.5 0.00 1.65 1.65 97 1013.3
20260904031607 15 0 0.0 4.8 0.00 1.65 1.65 97 1014.4
20260904030104 15 119 1.6 6.4 0.00 1.65 1.65 96 1014.9
20260904024604 15 0 0.0 11.3 0.10 1.65 1.65 96 1014.5
20260904023102 15 97 3.2 12.9 0.30 1.65 1.65 96 1014.8
20260904021608 15 0 0.0 9.7 1.37 1.65 1.65 95 1014.8
20260904020106 16 41 1.6 8.0 1.65 1.65 1.65 95 1015.0
20260904014620 16 127 0.0 3.2 1.55 1.55 1.55 93 1016.0
20260904013112 16 165 1.6 6.4 1.32 1.32 1.32 90 1015.8
20260904011606 18 237 3.2 20.9 0.25 0.25 0.25 82 1016.6
20260904010115 19 153 1.6 11.3 0.00 0.00 0.00 70 1014.6
20260904004558 20 197 3.2 14.5 0.00 0.00 0.00 70 1014.0
20260904003133 20 114 3.2 12.9 0.00 0.00 0.00 69 1013.7
20260904001602 20 115 3.2 12.9 0.00 0.00 0.00 69 1013.8
20260904000103 20 98 4.8 14.5 0.00 0.00 0.00 68 1013.5
20260903234557 21 0 3.2 16.1 0.00 0.00 0.00 68 1013.5
20260903233100 21 117 9.7 24.1 0.00 0.00 0.00 66 1013.2
20260903231611 22 123 3.2 17.7 0.00 0.00 0.00 66 1012.9
20260903230106 22 64 1.6 16.1 0.00 0.00 0.00 65 1012.8
20260903224600 22 72 4.8 16.1 0.00 0.00 0.00 64 1012.9
20260903223107 23 117 4.8 14.5 0.00 0.00 0.00 64 1013.3
20260903221607 23 78 4.8 16.1 0.00 0.00 0.00 63 1013.0
20260903220104 22 81 4.8 14.5 0.00 0.00 0.00 64 1012.9
20260903214603 23 141 6.4 16.1 0.00 0.00 0.00 61 1013.3
20260903213058 23 130 4.8 16.1 0.00 0.00 0.00 61 1013.3
20260903211606 24 69 6.4 16.1 0.00 0.00 0.00 60 1013.3
20260903210101 24 60 4.8 16.1 0.00 0.00 0.00 61 1012.9
20260903204559 24 130 6.4 19.3 0.00 0.00 0.00 61 1013.0
20260903203056 25 115 8.0 20.9 0.00 0.00 0.00 58 1013.1
20260903201555 25 202 3.2 17.7 0.00 0.00 0.00 58 1013.3
20260903200105 25 117 6.4 25.7 0.00 0.00 0.00 58 1013.5
20260903194559 25 0 4.8 19.3 0.00 0.00 0.00 62 1013.4
20260903193109 25 61 9.7 22.5 0.00 0.00 0.00 58 1013.7
20260903191605 25 169 8.0 25.7 0.00 0.00 0.00 58 1013.7
20260903190106 25 126 8.0 19.3 0.00 0.00 0.00 58 1013.6
20260903184600 25 78 11.3 20.9 0.00 0.00 0.00 58 1013.6
20260903183107 25 200 8.0 17.7 0.00 0.00 0.00 59 1013.8
20260903181605 25 101 9.7 17.7 0.00 0.00 0.00 59 1013.8
20260903180107 26 131 11.3 25.7 0.00 0.00 0.00 58 1014.0
20260903174558 25 115 4.8 12.9 0.00 0.00 0.00 59 1014.0
20260903173110 25 120 8.0 17.7 0.00 0.00 0.00 61 1014.0
20260903171604 25 69 9.7 20.9 0.00 0.00 0.00 60 1014.0
20260903170109 24 113 6.4 17.7 0.00 0.00 0.00 63 1014.3
20260903164608 24 144 8.0 20.9 0.00 0.00 0.00 62 1014.6
20260903163105 23 153 6.4 16.1 0.00 0.00 0.00 64 1014.6
20260903161554 23 98 6.4 17.7 0.00 0.00 0.00 66 1014.8
20260903160110 23 156 6.4 19.3 0.00 0.00 0.00 67 1014.9
20260903154607 22 126 6.4 19.3 0.00 0.00 0.00 67 1015.1
20260903153107 22 0 4.8 16.1 0.00 0.00 0.00 68 1015.3
20260903151603 22 148 6.4 19.3 0.00 0.00 0.00 69 1015.3
20260903150105 21 91 4.8 17.7 0.00 0.00 0.00 72 1015.5
20260903144601 21 105 9.7 19.3 0.00 0.00 0.00 73 1015.7
20260903143105 20 106 3.2 12.9 0.00 0.00 0.00 75 1015.7
20260903141553 20 133 3.2 11.3 0.00 0.00 0.00 76 1015.7
20260903140105 19 133 3.2 12.9 0.00 0.00 0.00 77 1015.8
20260903134608 18 119 1.6 11.3 0.00 0.00 0.00 80 1015.8
20260903133107 17 123 0.0 8.0 0.00 0.00 0.00 82 1015.5
20260903131605 17 112 0.0 4.8 0.00 0.00 0.00 83 1015.4
20260903130128 16 100 0.0 6.4 0.00 0.00 0.00 89 1015.6
20260903124612 14 0 0.0 4.8 0.00 0.00 0.00 93 1015.7
20260903123103 13 0 0.0 4.8 0.00 0.00 0.00 94 1015.4
20260903121602 13 0 0.0 3.2 0.00 0.00 0.00 96 1015.4
20260903120113 12 0 0.0 3.2 0.00 0.00 0.00 96 1015.4
20260903114605 12 0 0.0 3.2 0.00 0.00 0.00 97 1015.3
20260903113105 12 0 0.0 0.0 0.00 0.00 0.00 97 1015.4
20260903111605 12 0 0.0 0.0 0.00 0.00 0.00 96 1015.5
20260903110055 12 0 0.0 0.0 0.00 0.00 0.00 96 1015.4
20260903104554 12 355 0.0 3.2 0.00 0.00 0.00 96 1015.2
20260903103106 12 0 0.0 0.0 0.00 0.00 0.00 96 1015.2
20260903101632 12 0 0.0 0.0 0.00 0.00 0.00 95 1015.3
20260903100056 13 0 0.0 0.0 0.00 0.00 0.00 96 1015.2
20260903094605 13 0 0.0 0.0 0.00 0.00 0.00 96 1015.1
20260903093105 13 0 0.0 1.6 0.00 0.00 0.00 96 1014.9
20260903091600 13 0 0.0 1.6 0.00 0.00 0.00 96 1014.8
20260903090108 13 0 0.0 3.2 0.00 0.00 0.00 96 1014.9
20260903084553 13 355 0.0 3.2 0.00 0.00 0.00 97 1014.8
20260903083059 13 0 0.0 1.6 0.00 0.00 0.00 97 1015.0
20260903081603 13 0 0.0 0.0 0.00 0.00 0.00 96 1015.2
20260903080051 13 0 0.0 1.6 0.00 0.00 0.00 96 1015.2
20260903074611 13 0 0.0 0.0 0.00 0.00 0.00 95 1015.2
20260903073130 13 0 0.0 1.6 0.00 0.00 0.00 96 1015.3
20260903071615 13 0 0.0 0.0 0.00 0.00 0.00 96 1015.2
20260903070053 13 0 0.0 3.2 0.00 0.00 0.00 97 1015.4
20260903064558 13 0 0.0 0.0 0.00 0.00 0.00 96 1015.5
20260903063057 12 0 0.0 0.0 0.00 0.00 0.00 95 1015.6
20260903061604 13 0 0.0 0.0 0.00 0.00 0.00 96 1015.6